Van, Turkey

12:49 AM EEST on October 01, 2016 (GMT +0300)
Van

Weather History for LTCI - December, 2013

Change the Weather History Date:

Thursday, December 5, 2013

  Actual Average Record
Temperature  
Mean Temperature 30 °F -  
Max Temperature 34 °F 43 °F 53 °F (1996)
Min Temperature 27 °F 28 °F 3 °F (2015)
Degree Days  
Heating Degree Days 34    
Moisture  
Dew Point 26 °F    
Average Humidity 79    
Maximum Humidity 100    
Minimum Humidity 47    
Precipitation  
Precipitation 0.01 in - - ()
Sea Level Pressure  
Sea Level Pressure 29.90 in    
Wind  
Wind Speed 4 mph ()    
Max Wind Speed 7 mph    
Max Gust Speed -    
Visibility 4.1 miles    
Events Snow    
Averages and records for this station are not official NWS values.
T = Trace of Precipitation, MM = Missing Value Source: Averaged Metar Reports

Daily Weather History Graph

Daily Weather History Graph

Search for Another Location

Airport or City:

Trip Planner

Search our weather history database for the weather conditions in past years. The results will help you decide how hot, cold, wet, or windy it might be!

Date:

Astronomy

Dec. 05, 2013 Rise Set
Actual Time 6:08 AM EET 3:45 PM EET
Civil Twilight 5:39 AM EET 4:15 PM EET
Nautical Twilight 5:06 AM EET 4:48 PM EET
Astronomical Twilight 4:34 AM EET 5:20 PM EET
Moon 8:11 AM EET (12/5) 6:39 PM EET (12/5)
Length of Visible Light 10h 35m
Length of Day
9h 36m
Waxing Crescent, 8% of the Moon is Illuminated
Dec 5
Waxing Crescent
Dec 9
First Quarter
Dec 17
Full
Dec 25
Last Quarter
Jan 1
New

Hourly Weather History & Observations

Time (EET) Temp. Windchill Dew Point Humidity Pressure Visibility Wind Dir Wind Speed Gust Speed Precip Events Conditions
12:50 AM 30.2 °F - 21.2 °F 69% 30.01 in 6.2 mi East 2.3 mph - N/A   Mostly Cloudy
1:50 AM 28.4 °F 23.3 °F 21.2 °F 74% 29.98 in 5.0 mi NE 4.6 mph - N/A   Mostly Cloudy
2:00 AM 29 °F - 20 °F 59%  in 5 mi NE 4.6 mph - -   Haze
2:50 AM 30.2 °F 23.4 °F 21.2 °F 69% 29.98 in 5.0 mi ENE 6.9 mph - N/A   Mostly Cloudy
3:50 AM 30.2 °F 25.4 °F 21.2 °F 69% 29.95 in 5.0 mi NE 4.6 mph - N/A   Mostly Cloudy
4:50 AM 30.2 °F 24.3 °F 23.0 °F 75% 29.95 in 5.0 mi NE 5.8 mph - N/A   Mostly Cloudy
5:00 AM 31 °F - 21 °F 55%  in 5 mi NE 5.8 mph - -   Haze
5:50 AM 32.0 °F 27.5 °F 21.2 °F 64% 29.95 in 6.2 mi ENE 4.6 mph - N/A   Mostly Cloudy
6:50 AM 32.0 °F 27.5 °F 21.2 °F 64% 29.95 in 5.0 mi East 4.6 mph - N/A   Mostly Cloudy
7:50 AM 33.8 °F 28.6 °F 21.2 °F 60% 29.95 in 5.0 mi ENE 5.8 mph - N/A   Mostly Cloudy
8:00 AM 33 °F - 20 °F 47%  in 5 mi ENE 5.8 mph - -   Haze
8:50 AM 33.8 °F - 21.2 °F 60% 29.95 in 5.0 mi East 2.3 mph - N/A Snow Light Snow
9:50 AM 33.8 °F 29.6 °F 24.8 °F 70% 29.95 in 5.0 mi ESE 4.6 mph - N/A Snow Light Snow
10:28 AM 33.8 °F 28.6 °F 24.8 °F 70% 29.95 in 3.1 mi ENE 5.8 mph - N/A Snow Light Snow
10:50 AM 32.0 °F 26.4 °F 26.6 °F 80% 29.92 in 3.1 mi NE 5.8 mph - N/A Snow Light Snow
11:00 AM 33 °F - 26 °F 68%  in 3 mi NE 5.8 mph - - Snow Light Snow
11:50 AM 32.0 °F 28.7 °F 26.6 °F 80% 29.89 in 4.3 mi SE 3.5 mph - N/A   Overcast
12:50 PM 32.0 °F - 26.6 °F 80% 29.89 in 3.7 mi Variable 2.3 mph - N/A Snow Light Snow
12:55 PM 32.0 °F 28.7 °F 28.4 °F 87% 29.86 in 1.6 mi SE 3.5 mph - N/A Snow Light Snow
1:50 PM 33.8 °F - 30.2 °F 87% 29.86 in 1.2 mi SSE 2.3 mph - N/A Snow Light Snow
2:00 PM 33 °F - 30 °F 86%  in 3 mi SSE 2.3 mph - - Snow Light Snow
2:19 PM 32.0 °F 28.7 °F 30.2 °F 93% 29.86 in 3.7 mi East 3.5 mph - N/A Snow Light Snow
2:50 PM 33.8 °F 29.6 °F 30.2 °F 87% 29.86 in 3.7 mi East 4.6 mph - N/A   Mostly Cloudy
3:38 PM 32.0 °F 27.5 °F 30.2 °F 93% 29.86 in 3.7 mi ENE 4.6 mph - N/A Snow Light Snow
3:50 PM 32.0 °F 28.7 °F 30.2 °F 93% 29.86 in 3.7 mi ENE 3.5 mph - N/A Snow Light Snow
4:50 PM 32.0 °F - 30.2 °F 93% 29.86 in 3.7 mi East 2.3 mph - N/A   Mostly Cloudy
5:00 PM 31 °F - 29 °F 89%  in 4 mi East 2.3 mph - -   Mist
5:50 PM 32.0 °F - 30.2 °F 93% 29.86 in 3.7 mi Variable 1.2 mph - N/A   Mostly Cloudy
6:50 PM 30.2 °F - 30.2 °F 100% 29.86 in 3.7 mi NNE 2.3 mph - N/A   Mostly Cloudy
7:50 PM 32.0 °F - 30.2 °F 93% 29.86 in 3.7 mi East 2.3 mph - N/A   Mostly Cloudy
8:00 PM 32 °F - 30 °F 90%  in 4 mi East 2.3 mph - -   Mist
8:50 PM 32.0 °F - 30.2 °F 93% 29.86 in 3.7 mi Calm Calm - N/A   Mostly Cloudy
9:50 PM 32.0 °F 27.5 °F 30.2 °F 93% 29.86 in 3.7 mi NE 4.6 mph - N/A   Mostly Cloudy
10:50 PM 32.0 °F 27.5 °F 30.2 °F 93% 29.86 in 3.7 mi ENE 4.6 mph - N/A   Mostly Cloudy
11:00 PM 33 °F - 30 °F 82%  in 4 mi NE 4.6 mph - -   Mist
11:50 PM 33.8 °F 28.6 °F 30.2 °F 87% 29.86 in 3.7 mi ENE 5.8 mph - N/A   Mostly Cloudy